When you browse on this site, cookies collect data to enhance your experience and personalize the content and advertising you see.
Visit our Privacy Policy to learn more. By continuing to use the site, you agree to this use of cookies and data.
  • In Switzerland
  • List of Countries
  • For 7 days
  • Water Temperature
  • Weather Map
  • Weather Widgets
  • user-avatar
    Login

    Hourly Weather Ituni

    Today, 25 May, Monday

    Time Temperature Precipitation Wind Pressure Humidity
    00:00 +23°C° 0 mm 0 mps 754 mmHg 93%
    01:00 +23°C° 0 mm 0 mps 753 mmHg 95%
    02:00 +23°C° 0 mm 0 mps 752 mmHg 96%
    03:00 +23°C° 0 mm 0 mps 752 mmHg 96%
    04:00 +23°C° 0 mm 0 mps 752 mmHg 97%
    05:00 +22°C° 0 mm 0 mps 753 mmHg 98%
    06:00 +24°C° 0 mm 0 mps 753 mmHg 92%
    07:00 +25°C° 0 mm 0 mps 754 mmHg 87%
    08:00 +26°C° 0 mm 0 mps 754 mmHg 81%
    09:00 +27°C° 0.6 mm 0 mps 754 mmHg 78%
    10:00 +30°C° 0.6 mm 1 mps 754 mmHg 74%
    11:00 +31°C° 0.6 mm 1 mps 754 mmHg 70%
    12:00 +31°C° 2 mm 1 mps 753 mmHg 75%
    13:00 +31°C° 2 mm 2 mps 753 mmHg 80%
    14:00 +30°C° 2 mm 2 mps 752 mmHg 85%
    15:00 +29°C° 1.2 mm 2 mps 752 mmHg 87%
    16:00 +29°C° 1.2 mm 2 mps 752 mmHg 89%
    17:00 +28°C° 1.2 mm 2 mps 752 mmHg 91%
    18:00 +27°C° 0 mm 1 mps 752 mmHg 93%
    19:00 +26°C° 0 mm 1 mps 752 mmHg 94%
    20:00 +23°C° 0 mm 0 mps 753 mmHg 95%
    21:00 +23°C° 0 mm 0 mps 753 mmHg 95%
    22:00 +23°C° 0 mm 0 mps 754 mmHg 96%
    23:00 +23°C° 0 mm 0 mps 754 mmHg 96%

    Tomorrow, 26 May, Tuesday

    Time Temperature Precipitation Wind Pressure Humidity
    00:00 +23°C° 0 mm 0 mps 753 mmHg 96%
    01:00 +23°C° 0 mm 0 mps 753 mmHg 96%
    02:00 +22°C° 0 mm 0 mps 753 mmHg 96%
    03:00 +22°C° 0 mm 0 mps 753 mmHg 97%
    04:00 +22°C° 0 mm 0 mps 753 mmHg 97%
    05:00 +22°C° 0 mm 0 mps 753 mmHg 98%
    06:00 +23°C° 0 mm 0 mps 753 mmHg 93%
    07:00 +24°C° 0 mm 0 mps 754 mmHg 88%
    08:00 +27°C° 0 mm 1 mps 754 mmHg 84%
    09:00 +29°C° 0 mm 1 mps 754 mmHg 74%
    10:00 +31°C° 0 mm 1 mps 754 mmHg 65%
    11:00 +33°C° 0 mm 1 mps 754 mmHg 55%
    12:00 +33°C° 0.4 mm 1 mps 753 mmHg 60%
    13:00 +32°C° 0.4 mm 1 mps 752 mmHg 65%
    14:00 +31°C° 0.4 mm 1 mps 751 mmHg 69%
    15:00 +31°C° 0.9 mm 1 mps 751 mmHg 75%
    16:00 +30°C° 0.9 mm 1 mps 751 mmHg 82%
    17:00 +29°C° 0.9 mm 1 mps 751 mmHg 88%
    18:00 +28°C° 0.6 mm 1 mps 752 mmHg 90%
    19:00 +27°C° 0.6 mm 1 mps 753 mmHg 92%
    20:00 +26°C° 0.6 mm 1 mps 753 mmHg 95%
    21:00 +26°C° 0 mm 1 mps 753 mmHg 95%
    22:00 +26°C° 0 mm 1 mps 753 mmHg 96%
    23:00 +26°C° 0 mm 1 mps 754 mmHg 96%

    Day after tomorrow, 27 May, Wednesday

    Time Temperature Precipitation Wind Pressure Humidity
    00:00 +25°C° 0 mm 1 mps 753 mmHg 97%
    01:00 +23°C° 0 mm 0 mps 753 mmHg 98%
    02:00 +23°C° 0 mm 0 mps 752 mmHg 98%
    03:00 +23°C° 0 mm 0 mps 752 mmHg 98%
    04:00 +23°C° 0 mm 0 mps 752 mmHg 98%
    05:00 +23°C° 0 mm 0 mps 753 mmHg 98%
    06:00 +26°C° 0 mm 1 mps 753 mmHg 94%
    07:00 +27°C° 0 mm 1 mps 753 mmHg 89%
    08:00 +28°C° 0 mm 2 mps 754 mmHg 85%
    09:00 +30°C° 0.3 mm 2 mps 754 mmHg 78%
    10:00 +31°C° 0.3 mm 2 mps 753 mmHg 72%
    11:00 +32°C° 0.3 mm 2 mps 753 mmHg 65%
    12:00 +32°C° 0.6 mm 2 mps 752 mmHg 66%
    13:00 +32°C° 0.6 mm 2 mps 752 mmHg 68%
    14:00 +32°C° 0.6 mm 2 mps 751 mmHg 69%
    15:00 +31°C° 0.9 mm 2 mps 751 mmHg 76%
    16:00 +30°C° 0.9 mm 1 mps 751 mmHg 82%
    17:00 +29°C° 0.9 mm 1 mps 750 mmHg 89%
    18:00 +28°C° 0.2 mm 1 mps 751 mmHg 91%
    19:00 +27°C° 0.2 mm 1 mps 752 mmHg 93%
    20:00 +26°C° 0.2 mm 1 mps 753 mmHg 95%
    21:00 +25°C° 0 mm 1 mps 753 mmHg 96%
    22:00 +25°C° 0 mm 1 mps 753 mmHg 96%
    23:00 +25°C° 0 mm 1 mps 753 mmHg 97%

    28 May, Thursday

    Time Temperature Precipitation Wind Pressure Humidity
    00:00 +23°C° 0 mm 0 mps 753 mmHg 97%
    01:00 +23°C° 0 mm 0 mps 752 mmHg 98%
    02:00 +23°C° 0 mm 0 mps 752 mmHg 98%
    03:00 +22°C° 0.1 mm 0 mps 752 mmHg 98%
    04:00 +22°C° 0.1 mm 0 mps 752 mmHg 98%
    05:00 +22°C° 0.1 mm 0 mps 752 mmHg 99%
    06:00 +23°C° 0.2 mm 0 mps 752 mmHg 96%
    07:00 +26°C° 0.2 mm 1 mps 753 mmHg 93%
    08:00 +27°C° 0.2 mm 1 mps 753 mmHg 90%
    09:00 +28°C° 1.1 mm 1 mps 753 mmHg 88%
    10:00 +29°C° 1.1 mm 1 mps 753 mmHg 86%
    11:00 +30°C° 1.1 mm 1 mps 753 mmHg 84%
    12:00 +30°C° 1.4 mm 2 mps 752 mmHg 84%
    13:00 +30°C° 1.4 mm 2 mps 751 mmHg 83%
    14:00 +30°C° 1.4 mm 2 mps 751 mmHg 83%
    15:00 +30°C° 0.9 mm 2 mps 750 mmHg 85%
    16:00 +29°C° 0.9 mm 1 mps 750 mmHg 87%
    17:00 +29°C° 0.9 mm 1 mps 750 mmHg 89%
    18:00 +28°C° 0 mm 1 mps 751 mmHg 90%
    19:00 +27°C° 0 mm 1 mps 752 mmHg 92%
    20:00 +26°C° 0 mm 1 mps 752 mmHg 93%
    21:00 +25°C° 0 mm 1 mps 753 mmHg 94%
    22:00 +25°C° 0 mm 1 mps 753 mmHg 95%
    23:00 +23°C° 0 mm 0 mps 753 mmHg 96%

    29 May, Friday

    Time Temperature Precipitation Wind Pressure Humidity
    00:00 +23°C° 0 mm 0 mps 752 mmHg 97%
    01:00 +23°C° 0 mm 0 mps 752 mmHg 97%
    02:00 +23°C° 0 mm 0 mps 752 mmHg 98%
    03:00 +23°C° 0.5 mm 0 mps 752 mmHg 98%
    04:00 +23°C° 0.5 mm 0 mps 752 mmHg 98%
    05:00 +22°C° 0.5 mm 0 mps 752 mmHg 98%
    06:00 +23°C° 0.4 mm 0 mps 753 mmHg 96%
    07:00 +26°C° 0.4 mm 1 mps 753 mmHg 94%
    08:00 +27°C° 0.4 mm 1 mps 753 mmHg 92%
    09:00 +28°C° 0.9 mm 1 mps 753 mmHg 90%
    10:00 +29°C° 0.9 mm 1 mps 753 mmHg 88%
    11:00 +29°C° 0.9 mm 2 mps 753 mmHg 86%
    12:00 +29°C° 1.6 mm 2 mps 752 mmHg 86%
    13:00 +29°C° 1.6 mm 2 mps 751 mmHg 87%
    14:00 +29°C° 1.6 mm 2 mps 751 mmHg 87%
    15:00 +29°C° 1 mm 1 mps 751 mmHg 89%
    16:00 +28°C° 1 mm 1 mps 750 mmHg 90%
    17:00 +28°C° 1 mm 1 mps 750 mmHg 92%
    18:00 +27°C° 0.4 mm 1 mps 751 mmHg 93%
    19:00 +26°C° 0.4 mm 1 mps 752 mmHg 94%
    20:00 +26°C° 0.4 mm 1 mps 752 mmHg 95%
    21:00 +26°C° 0.3 mm 1 mps 752 mmHg 96%
    22:00 +25°C° 0.3 mm 1 mps 753 mmHg 97%
    23:00 +25°C° 0.3 mm 1 mps 753 mmHg 97%

    30 May, Saturday

    Time Temperature Precipitation Wind Pressure Humidity
    00:00 +25°C° 1.6 mm 1 mps 752 mmHg 98%
    01:00 +25°C° 1.6 mm 1 mps 752 mmHg 98%
    02:00 +25°C° 1.6 mm 1 mps 751 mmHg 99%
    03:00 +25°C° 8.3 mm 1 mps 751 mmHg 99%
    04:00 +25°C° 8.3 mm 1 mps 752 mmHg 99%
    05:00 +25°C° 8.3 mm 1 mps 752 mmHg 99%
    06:00 +25°C° 3 mm 1 mps 752 mmHg 97%
    07:00 +26°C° 3 mm 1 mps 753 mmHg 96%
    08:00 +26°C° 3 mm 1 mps 753 mmHg 95%
    09:00 +27°C° 1.3 mm 1 mps 753 mmHg 93%
    10:00 +28°C° 1.3 mm 1 mps 753 mmHg 91%
    11:00 +29°C° 1.3 mm 1 mps 753 mmHg 89%
    12:00 +29°C° 1.3 mm 1 mps 752 mmHg 87%
    13:00 +29°C° 1.3 mm 1 mps 752 mmHg 85%
    14:00 +30°C° 1.3 mm 1 mps 751 mmHg 83%
    15:00 +29°C° 1.1 mm 1 mps 751 mmHg 87%
    16:00 +28°C° 1.1 mm 1 mps 751 mmHg 90%
    17:00 +28°C° 1.1 mm 1 mps 751 mmHg 94%
    18:00 +27°C° 1.7 mm 1 mps 751 mmHg 95%
    19:00 +26°C° 1.7 mm 1 mps 752 mmHg 96%
    20:00 +26°C° 1.7 mm 1 mps 752 mmHg 96%
    21:00 +25°C° 1 mm 1 mps 752 mmHg 97%
    22:00 +25°C° 1 mm 1 mps 753 mmHg 97%
    23:00 +25°C° 1 mm 1 mps 753 mmHg 98%
    Show more